Regional Weather Roundup
Issued by NWS

Home | Current Version | Previous Version | Text Only | Print | Product List | Glossary Off
Versions: 1 2 3 4 5 6 7 8 9 10 11 12 13 14 15 16 17 18 19 20 21 22 23 24 25 26 27 28 29 30 31 32 33 34 35 36 37 38 39 40 41 42 43 44 45 46 47 48 49 50

000
ASUS45 KBOU 031307
RWRCO

WEATHER ROUNDUP FOR COLORADO
NATIONAL WEATHER SERVICE DENVER/BOULDER CO
700 AM MDT MON AUG 03 2015

NOTE: "FAIR" INDICATES FEW OR NO CLOUDS BELOW 12000 FEET WITH NO
SIGNIFICANT WEATHER AND/OR OBSTRUCTIONS TO VISIBILITY.

COZ001>005-013-030-031-031400-
...NORTHWEST COLORADO...

CITY           SKY/WX    TMP DP  RH WIND       PRES   REMARKS
CRAIG          CLOUDY    59  32  36 NW6       30.18R
HAYDEN         CLOUDY    57  50  77 S3        30.20R
MEEKER         CLOUDY    59  55  87 CALM      30.19R
MOUNT WERNER   NOT AVBL
STEAMBOAT SPGS CLOUDY    55  49  80 SW3       30.20S
WALDEN         CLOUDY    52  43  71 SE6       30.29S
$$

COZ006>008-011-031400-
...WEST CENTRAL VALLEYS...

CITY           SKY/WX    TMP DP  RH WIND       PRES   REMARKS
GRAND JUNCTION MOCLDY    62  57  83 CALM      30.10R
MONTROSE       CLOUDY    61  58  90 CALM      30.20R
EAGLE          CLOUDY    57  55  94 CALM      30.24R
RIFLE          CLOUDY    62  59  90 MISG      30.17R
DELTA          CLOUDY    64  60  87 SE3       30.15R
NUCLA          CLOUDY    55  54  94 E6        30.23R
$$

COZ017>023-064>068-031400-
...SOUTHWEST COLORADO...

CITY           SKY/WX    TMP DP  RH WIND       PRES   REMARKS
DURANGO        PTCLDY    52  52 100 CALM      30.25S
CORTEZ         CLEAR     55  54  96 E5        30.20R
PAGOSA SPRINGS MOCLDY    54  54 100 CALM      30.32R
TELLURIDE      CLOUDY    53  50  88 SE3       30.39R
WOLF CREEK PAS NOT AVBL
$$

COZ009-010-012-014-032>034-037-058>063-031400-
...CENTRAL COLORADO...

CITY           SKY/WX    TMP DP  RH WIND       PRES   REMARKS
ASPEN          LGT RAIN  54  51  90 CALM      30.28R
BUENA VISTA    CLOUDY    54  51  89 NW6       30.32S
COPPER MTN     CLOUDY    52  32  46 E17G26    30.55S
BERTHOUD PASS  CLOUDY    43  32  65 SE29G35   30.61R
COTTONWOOD PAS CLOUDY    55  43  62 CALM      30.44R
GUNNISON       CLOUDY    55  50  82 N3        30.33R
KREMMLING      CLOUDY    55  45  67 CALM      30.28R
LEADVILLE      CLOUDY    46  46 100 E3        30.43R
MONARCH PASS   LGT RAIN  43  36  75 E15       30.65S
SALIDA         NOT AVBL
SUNLIGHT       CLOUDY    46  45  93 CALM      30.49R
WILKERSON PASS CLOUDY    46  41  81 SW7       30.55R
$$

COZ069>075-031400-
...SAN LUIS VALLEY/SANGRE DE CRISTO MOUNTAINS...

CITY           SKY/WX    TMP DP  RH WIND       PRES   REMARKS
ALAMOSA        CLOUDY    56  53  90 CALM      30.29R
LA VETA PASS   DRIZZLE   45  45 100 MISG      30.43S
SAGUACHE       CLOUDY    55  52  88 CALM      30.31S
$$

COZ035-036-038>040-031400-
...NORTHERN COLORADO FRONT RANGE...

CITY           SKY/WX    TMP DP  RH WIND       PRES   REMARKS
DENVER INTL AP CLOUDY    71  48  43 SW9       30.09S
DMNS CITY PARK   N/A     67  52  59 E1G8      30.08S
AURORA         PTSUNNY   65  51  61 S10       30.12R
FRONT RANGE AP PTSUNNY   68  48  49 S7        30.11
ERIE MUNI ARPT CLOUDY    61  57  87 N3        30.08R
BOULDER MUN AP CLOUDY    68  52  56 CALM      30.09S
CENTENNIAL     CLOUDY    63  53  70 SE7       30.12S
BROOMFIELD     MOCLDY    68  50  52 NW7       30.11S
FORT COLLINS   PTSUNNY   63  54  72 N3        30.09R
LONGMONT       MOCLDY    65  54  67 CALM      30.10R
$$

COZ041-046-047-076>085-087-088-031400-
...PIKES PEAK/PALMER DIVIDE AND SOUTHERN FOOTHILLS...

CITY           SKY/WX    TMP DP  RH WIND       PRES   REMARKS
COLO. SPRINGS  CLOUDY    67  52  58 CALM      30.17S
A. F. ACADEMY  CLOUDY    61  51  68 N5        30.19R
ELLICOTT       CLOUDY   N/A N/A N/A SE3       30.15R
FALCON         CLOUDY    62  53  72 W3        30.22S
FORT CARSON    CLOUDY    65  52  62 NW7       30.13R
LIMON          CLOUDY    63  54  72 NW3       30.12R
MONUMENT HILL  NOT AVBL
TRINIDAD       MOCLDY    62  55  77 NW7       30.12R
$$

COZ042>045-048>051-090-091-031400-
...NORTHEAST COLORADO...

CITY           SKY/WX    TMP DP  RH WIND       PRES   REMARKS
GREELEY ARPT   CLOUDY    61  54  77 CALM      30.07R
AKRON          CLOUDY    69  56  62 SW9       30.06R
BURLINGTON     MOSUNNY   67  61  81 CALM      30.05R
WRAY           MOSUNNY   65  58  79 E12       30.03R
STERLING       CLOUDY    59  55  88 CALM      30.01S
HOLYOKE        MOSUNNY   66  57  72 E7        30.03R
FORT MORGAN    CLOUDY    65  50  60 CALM      30.06R
$$

COZ086-089-092>099-031400-
...SOUTHEAST COLORADO...

CITY           SKY/WX    TMP DP  RH WIND       PRES   REMARKS
PUEBLO         CLOUDY    69  57  65 CALM      30.06R
LA JUNTA       CLOUDY    71  55  56 CALM      30.03R
LAMAR          PTSUNNY   69  64  84 E5        29.99R HAZE
SPRINGFIELD      N/A     68  60  75 W5        30.04R
$$



USA.gov is the U.S. government's official web portal to all federal, state and local government web resources and services.